This is the latest recevied weather packets stored in our database for station/object N4MGC. If no packets are shown the sender has not sent any weather packets the latest 10 day(s).
| Time | Temp. | Humidity | Pressure | Rain* | Wind** | Luminosity | Snow |
|---|---|---|---|---|---|---|---|
| 1777433622 | 17.78° C | 99% | 1014.5 hPa | 7.87 mm | - | 0 W/m² | - |
| 1777433317 | 17.78° C | 99% | 1015 hPa | 6.1 mm | - | 0 W/m² | - |
| 1777433014 | 17.78° C | 99% | 1015.4 hPa | 4.32 mm | - | 0 W/m² | - |
| 1777432709 | 17.78° C | 99% | 1015.9 hPa | 4.83 mm | - | 0 W/m² | - |
| 1777432405 | 17.78° C | 99% | 1016 hPa | 4.83 mm | - | 0 W/m² | - |
| 1777432101 | 17.78° C | 99% | 1016.2 hPa | 4.32 mm | - | 0 W/m² | - |
| 1777431795 | 17.78° C | 99% | 1016.2 hPa | 1.27 mm | - | 0 W/m² | - |
| 1777431492 | 17.22° C | 99% | 1016.3 hPa | 0 mm | - | 0 W/m² | - |
| 1777431188 | 17.22° C | 99% | 1016.4 hPa | 0 mm | - | 0 W/m² | - |
| 1777430884 | 17.22° C | 99% | 1016.7 hPa | 1.78 mm | - | 0 W/m² | - |
| 1777430581 | 17.22° C | 99% | 1016.5 hPa | 1.78 mm | - | 0 W/m² | - |
| 1777430276 | 17.22° C | 99% | 1016.2 hPa | 0 mm | - | 0 W/m² | - |
| 1777429976 | 17.22° C | 99% | 1016 hPa | 0 mm | - | 0 W/m² | - |
| 1777429674 | 17.22° C | 99% | 1015.8 hPa | 0 mm | - | 0 W/m² | - |
| 1777429369 | 17.22° C | 99% | 1016.2 hPa | 0 mm | - | 0 W/m² | - |
| 1777429064 | 17.22° C | 99% | 1016 hPa | 0 mm | - | 0 W/m² | - |
| 1777428761 | 17.22° C | 99% | 1016.3 hPa | 1.78 mm | - | 0 W/m² | - |
| 1777428457 | 17.22° C | 99% | 1016.2 hPa | 3.05 mm | - | 0 W/m² | - |
| 1777428153 | 17.78° C | 99% | 1016 hPa | 6.1 mm | - | 0 W/m² | - |
| 1777427849 | 17.78° C | 99% | 1016.7 hPa | 8.89 mm | - | 0 W/m² | - |
| 1777427546 | 17.78° C | 99% | 1017.3 hPa | 7.11 mm | - | 0 W/m² | - |
| 1777427242 | 17.78° C | 99% | 1017.6 hPa | 3.05 mm | - | 0 W/m² | - |
| 1777426940 | 17.78° C | 99% | 1017.8 hPa | 3.05 mm | - | 0 W/m² | - |
| 1777426636 | 17.78° C | 99% | 1018 hPa | 1.27 mm | - | 0 W/m² | - |
| 1777426333 | 17.78° C | 99% | 1018 hPa | 0 mm | - | 0 W/m² | - |
* Rain latest hour (hover to see other rain measurements)
** Current wind speed in m/s (hover to see current wind gust speed)